Wind_Speed
17 15 13 11 7 10 17 15 13 8 7 6 8 8 7 10 7 5 5 3 5 4 3 3 7 11 11 10 9 9 7 7 5 4 3 1 1 1 1 2 5 6 5 6 6 6 6 6 5
19 17 15 10 14 20 18 14 11 9 11 5 5 7 9 9 17 12 6 7 3 5 5 3 5 10 10 10 8 9 8 8 6 6 4 2 1 1 1 3 7 6 5 4 3 3 4 3 2
20 19 14 12 23 25 20 9 11 10 12 6 4 8 8 10 15 15 10 8 7 6 6 5 4 9 12 11 10 10 10 10 8 7 5 4 3 3 3 5 7 6 4 1 3 4 5 4 0
18 20 18 22 25 17 18 17 12 11 8 10 8 7 13 13 13 14 11 10 10 9 9 8 9 10 13 13 12 11 11 9 10 8 6 5 5 4 6 8 6 4 2 2 4 5 5 3 1
16 13 18 22 25 25 21 16 13 11 13 12 12 10 10 13 14 13 11 11 12 11 12 12 12 11 13 13 13 12 12 11 10 9 7 7 6 7 9 6 5 3 2 5 6 6 5 3 1
11 11 20 23 25 23 20 20 19 21 18 16 15 16 15 14 13 13 14 14 12 11 11 11 13 14 15 14 13 12 12 11 10 9 8 8 8 8 8 5 4 4 5 6 7 5 3 1 1
12 13 19 23 24 22 17 15 20 20 19 19 15 11 15 19 13 14 13 15 12 11 10 11 13 16 17 15 14 13 13 12 11 10 10 9 9 9 9 7 6 6 6 5 4 3 1 1 2
10 13 19 19 21 21 16 17 13 14 14 20 17 8 19 25 20 14 15 14 13 11 10 12 14 17 19 17 17 15 14 13 13 11 11 11 11 10 8 7 9 7 6 4 2 1 1 2 3
10 10 14 15 17 17 13 14 14 16 18 11 13 13 17 2 15 17 15 14 13 14 12 11 15 18 20 20 19 17 16 15 14 13 13 12 13 9 10 7 9 5 5 3 2 2 3 4 5
8 10 12 12 11 13 14 15 15 17 16 15 16 14 25 24 16 16 19 18 15 18 17 14 17 18 21 21 19 18 16 15 14 14 16 18 14 9 9 9 8 7 5 4 4 4 5 6 6
6 12 12 13 12 14 16 17 17 18 21 19 18 15 17 23 21 18 21 18 15 17 19 18 21 21 18 22 18 18 16 16 16 17 15 14 14 10 10 10 8 7 6 5 5 6 6 7 7
8 10 10 12 12 14 16 16 18 19 20 20 21 22 22 17 23 19 18 21 26 31 24 21 25 20 21 21 18 18 18 17 20 17 17 14 14 12 10 10 8 7 7 7 7 7 7 7 7
10 9 13 15 16 16 17 18 18 19 19 18 19 22 26 22 23 24 20 20 19 20 19 24 21 27 21 20 20 22 19 20 22 20 17 16 14 12 11 11 9 9 9 9 9 9 9 9 8
10 12 13 13 12 13 14 17 15 13 12 12 14 19 21 25 24 24 30 25 25 29 27 24 28 26 19 22 21 22 21 22 24 21 18 17 15 14 14 12 10 10 10 10 10 10 10 10 9
9 9 9 5 10 12 12 14 15 13 13 12 11 12 14 19 23 26 28 34 25 27 27 26 20 25 26 27 25 21 22 24 23 21 21 18 17 15 15 13 11 11 11 12 12 12 12 12 12
8 7 12 11 9 12 11 15 9 10 12 15 14 14 16 18 19 22 25 31 32 28 32 29 27 28 29 30 27 24 24 24 24 23 21 20 18 17 15 14 13 13 13 13 14 14 14 13 12
5 17 15 13 13 12 12 18 15 14 19 19 17 18 18 17 18 21 22 29 37 32 36 32 35 33 29 27 26 24 25 24 23 23 22 22 21 18 17 15 15 15 15 15 16 16 15 15 13
18 18 15 15 13 13 11 14 14 12 14 14 15 17 17 19 16 16 21 31 36 36 38 41 40 29 26 27 23 24 25 23 24 23 22 22 23 21 21 19 17 17 17 18 17 16 16 15 14
16 17 16 15 8 11 13 10 4 10 10 9 10 10 11 15 18 22 26 29 38 33 41 61 38 35 33 19 22 26 24 24 26 24 23 24 25 25 24 21 21 21 20 20 20 19 18 16 16
16 14 16 9 9 10 19 6 4 12 11 11 13 13 11 15 16 14 23 27 33 26 28 37 40 30 29 35 25 28 27 27 27 24 25 25 27 29 28 26 25 25 25 25 23 21 19 18 16
14 11 20 16 14 9 22 7 5 16 13 14 9 9 10 11 14 16 18 27 28 24 32 28 29 34 28 26 24 25 26 27 25 25 24 26 29 34 33 33 31 31 32 29 26 22 22 21 20
11 22 14 7 8 10 15 3 4 20 19 17 16 13 11 14 16 13 22 23 26 22 21 25 21 29 30 30 25 25 27 25 26 27 26 27 29 33 36 36 37 36 34 30 31 27 29 27 22
13 18 9 5 8 9 16 7 8 24 27 27 21 14 7 9 18 22 14 21 22 24 24 21 20 26 31 28 22 27 27 27 28 31 36 42 40 42 40 45 40 46 44 43 45 41 41 32 26
22 15 10 7 6 2 17 7 9 27 28 25 26 15 10 7 12 20 14 22 17 15 23 20 20 29 27 27 21 27 24 30 32 29 31 33 34 34 42 47 44 36 48 43 42 45 36 39 26
18 17 4 3 5 7 17 5 7 19 26 23 22 19 8 3 8 11 9 18 16 12 12 11 10 22 14 11 17 27 22 30 28 26 31 34 31 35 43 51 36 45 37 35 27 37 32 29 25
11 11 4 2 5 7 10 11 10 20 21 20 18 15 9 7 6 13 16 18 13 12 13 8 10 13 11 8 8 10 11 17 20 15 10 18 26 27 24 15 23 32 28 29 25 29 30 26 26
9 11 7 3 5 6 1 14 9 15 17 17 20 17 9 11 12 12 11 9 9 8 6 5 9 9 8 7 7 5 9 14 1 3 1 4 11 10 11 6 10 14 18 22 27 27 25 29 30
8 12 4 3 4 5 4 10 13 18 19 18 14 16 15 11 14 14 11 10 7 6 6 9 8 8 8 6 4 3 1 4 14 11 4 3 3 4 6 9 10 10 15 23 28 27 29 35 37
6 6 6 4 3 4 7 8 12 13 15 13 12 15 15 14 12 12 11 10 10 9 7 7 6 5 6 7 3 8 12 11 6 5 5 9 11 12 11 11 12 14 16 22 25 31 39 41 39
4 3 6 6 8 6 6 4 11 13 10 11 10 13 12 11 15 14 17 15 14 12 11 12 11 10 11 11 13 12 9 9 9 10 9 11 10 9 10 14 19 23 27 29 32 30 27 30 31
Wind_Direction
253 255 256 252 248 242 251 244 230 235 239 233 258 221 222 229 242 224 195 294 328 300 330 250 217 200 203 208 211 203 210 193 190 199 207 206 130 80 87 95 117 115 103 92 74 58 52 51 57
251 249 250 243 247 247 251 243 240 235 234 286 266 240 245 241 233 222 261 241 296 280 279 295 216 200 198 201 201 207 212 189 203 208 208 209 179 145 145 142 140 135 125 105 64 30 17 16 46
246 242 235 249 248 250 258 248 235 238 242 253 266 256 229 230 235 234 247 233 257 267 252 257 242 201 194 200 197 213 208 198 209 214 206 198 182 170 163 147 147 145 144 154 358 343 340 343 352
246 240 237 239 246 252 252 252 245 242 265 250 256 255 261 234 235 235 236 240 248 255 255 236 220 202 200 199 204 215 203 201 205 211 202 195 190 161 149 171 164 161 185 235 324 327 325 323 282
244 229 244 249 256 256 254 243 256 250 247 252 250 247 248 235 233 227 229 236 241 253 251 231 214 201 199 201 205 208 205 204 207 206 197 192 192 167 176 182 185 195 276 312 323 327 326 323 293
232 230 246 254 260 261 255 253 255 260 256 250 257 253 252 238 236 221 220 224 229 254 264 221 207 193 198 205 210 212 200 212 206 202 198 194 186 174 184 183 226 266 299 317 325 324 322 45 310
232 244 253 260 266 265 260 252 253 259 256 249 223 237 254 237 237 222 210 215 220 231 238 221 210 197 201 207 215 212 215 208 203 202 199 194 184 184 189 217 252 287 295 309 323 316 323 109 147
230 247 257 261 265 266 260 250 248 250 245 239 247 243 244 241 225 221 209 216 220 223 221 224 216 207 204 205 207 215 215 205 203 201 199 191 186 192 220 236 263 278 286 291 290 259 179 141 139
252 242 262 268 268 270 260 256 255 248 239 250 240 236 256 178 222 215 217 217 221 209 222 219 225 214 211 212 212 213 214 205 202 201 194 187 193 208 242 247 253 258 260 249 226 198 156 160 151
257 262 268 271 262 268 262 252 250 254 265 246 247 251 260 259 239 225 221 224 219 218 205 217 229 225 214 219 214 218 211 207 205 203 188 197 202 231 259 252 244 241 234 218 200 182 170 166 156
270 258 272 278 279 268 266 264 264 261 256 245 239 232 274 250 238 227 225 218 214 227 213 233 215 217 222 218 216 217 211 205 198 195 201 208 226 241 250 244 229 228 227 211 200 187 181 177 170
292 284 283 285 282 278 273 271 266 261 260 249 243 237 237 257 239 230 231 229 230 221 217 237 223 200 213 223 215 217 212 204 199 200 215 223 233 238 235 236 231 225 216 208 203 187 183 186 183
284 281 291 295 288 282 279 272 274 270 269 261 258 248 237 239 237 238 226 220 220 232 228 216 224 208 227 221 216 218 210 205 201 201 221 231 234 231 232 236 234 229 218 211 199 192 195 196 197
285 303 303 307 300 294 284 282 273 276 282 272 265 248 240 239 237 238 236 228 224 221 220 224 224 222 221 225 219 223 209 207 209 217 228 233 226 226 234 236 234 230 223 217 208 203 203 203 205
329 321 334 318 315 302 294 304 285 274 263 277 270 257 249 241 235 235 241 239 233 225 219 213 218 231 213 224 220 217 210 209 216 224 230 230 224 228 235 236 234 230 226 223 219 214 213 211 212
332 319 340 319 312 312 318 303 296 277 274 280 262 244 243 259 249 239 232 238 236 229 222 211 202 227 223 211 214 210 209 209 217 224 230 228 226 231 233 234 235 231 228 225 222 219 218 218 223
292 334 332 328 319 315 306 298 297 284 285 278 271 262 253 250 248 238 231 229 230 230 219 213 211 210 217 215 213 207 207 210 220 227 229 228 228 232 233 233 237 236 233 229 226 225 222 223 226
321 327 327 325 322 318 316 306 306 298 306 293 284 268 250 246 248 252 236 232 230 232 226 213 205 208 213 213 203 210 206 210 222 228 232 232 234 231 232 234 235 235 232 229 226 227 228 230 231
320 318 317 321 312 353 330 332 8 347 348 333 304 284 250 239 243 242 242 233 234 239 227 248 191 198 206 217 213 213 208 214 223 227 232 234 240 241 235 237 239 237 225 225 223 224 228 232 235
325 315 326 319 329 333 337 258 81 10 342 326 327 305 281 253 244 250 250 237 237 240 247 228 202 203 207 205 215 216 215 215 224 229 237 237 239 245 243 239 241 234 226 221 221 226 228 233 239
335 323 318 297 308 295 342 219 256 344 342 319 288 276 268 263 252 231 245 231 236 241 236 242 198 210 208 202 209 212 217 221 231 236 238 244 243 247 249 247 243 240 230 222 218 220 226 230 234
331 321 321 292 316 339 4 319 7 358 349 355 347 302 284 253 226 245 241 232 236 240 243 236 228 220 215 213 216 216 220 221 235 240 239 245 248 251 257 257 251 247 233 223 222 216 222 225 226
320 335 343 296 296 315 350 328 315 350 355 357 353 340 285 254 233 218 231 227 230 237 245 255 262 223 219 215 224 222 223 234 234 244 256 258 250 243 253 257 265 254 234 232 231 252 230 223 222
348 333 291 302 288 256 3 354 331 352 349 355 347 352 300 246 225 221 212 213 213 230 245 263 298 237 223 209 220 230 238 262 252 257 252 262 262 253 253 262 264 263 265 263 262 259 230 232 221
354 12 359 324 3 26 354 345 344 355 354 353 359 13 354 261 214 196 180 197 202 213 237 239 273 269 307 324 251 255 270 248 243 270 271 262 261 259 263 259 256 263 260 250 250 237 235 224 232
352 14 27 299 352 329 339 3 350 6 357 2 7 7 31 82 124 164 165 184 192 202 225 224 197 209 223 237 235 281 257 238 273 268 326 263 250 240 248 270 246 245 238 255 231 221 234 236 245
349 358 353 301 255 270 355 23 26 9 9 15 22 36 52 93 112 127 148 178 195 200 204 180 183 191 204 217 220 269 250 314 50 155 17 86 179 169 171 226 215 219 227 214 220 233 241 251 254
13 2 336 345 335 324 18 46 360 356 9 15 34 33 62 92 113 114 126 133 146 163 196 194 199 217 235 235 230 236 37 227 169 161 105 68 142 163 212 229 242 242 239 229 237 244 249 255 252
338 2 351 320 351 331 322 60 7 355 352 22 31 63 51 89 119 135 132 137 136 147 166 192 193 188 168 164 168 149 148 165 181 234 251 275 248 254 263 257 257 258 256 258 262 260 261 260 266
287 302 343 337 338 307 276 47 5 10 20 44 56 48 50 81 104 102 117 122 135 144 140 140 148 151 145 137 141 160 182 196 221 266 277 267 256 250 274 249 245 248 252 250 256 259 263 268 272
Height
3146 3148 3149 3151 3156 3149 3145 3145 3146 3147 3148 3147 3147 3147 3150 3150 3149 3151 3149 3149 3149 3149 3149 3149 3149 3151 3152 3154 3156 3157 3158 3159 3160 3161 3161 3162 3162 3162 3162 3163 3163 3163 3163 3163 3164 3164 3164 3164 3164
3143 3145 3147 3149 3151 3145 3141 3142 3143 3145 3145 3145 3145 3145 3147 3149 3146 3146 3147 3148 3148 3148 3148 3149 3149 3150 3152 3153 3155 3157 3158 3159 3160 3161 3161 3162 3163 3163 3163 3163 3164 3164 3164 3164 3165 3165 3164 3164 3164
3140 3143 3146 3146 3144 3141 3141 3141 3143 3143 3143 3144 3145 3143 3145 3144 3143 3144 3146 3146 3147 3146 3147 3148 3149 3150 3151 3153 3155 3156 3158 3159 3160 3161 3161 3162 3163 3164 3164 3164 3165 3165 3165 3165 3165 3165 3165 3164 3164
3138 3140 3142 3140 3137 3138 3139 3140 3141 3142 3142 3142 3143 3144 3142 3141 3141 3142 3144 3145 3145 3145 3145 3147 3148 3149 3151 3152 3154 3156 3157 3158 3160 3161 3161 3162 3163 3164 3165 3164 3166 3166 3166 3166 3166 3166 3165 3165 3165
3135 3138 3138 3135 3135 3136 3137 3137 3138 3139 3140 3141 3141 3142 3141 3138 3139 3140 3142 3143 3143 3144 3144 3145 3146 3148 3150 3152 3153 3155 3156 3158 3159 3160 3161 3162 3163 3164 3165 3165 3166 3166 3166 3166 3166 3165 3165 3165 3165
3133 3135 3135 3132 3132 3133 3134 3134 3135 3136 3137 3138 3137 3139 3137 3137 3137 3137 3139 3141 3142 3141 3141 3143 3145 3147 3149 3151 3152 3154 3156 3157 3158 3159 3161 3162 3163 3164 3165 3166 3166 3166 3165 3165 3165 3166 3165 3164 3165
3130 3133 3131 3130 3129 3129 3131 3131 3132 3133 3134 3135 3131 3135 3132 3133 3133 3135 3137 3139 3140 3140 3141 3142 3143 3145 3147 3150 3152 3153 3154 3156 3157 3158 3160 3161 3163 3164 3165 3165 3166 3165 3165 3165 3165 3166 3165 3165 3165
3127 3130 3128 3128 3127 3127 3129 3129 3130 3130 3132 3126 3129 3134 3132 3125 3127 3130 3134 3136 3138 3138 3139 3141 3142 3144 3146 3148 3150 3152 3153 3154 3156 3157 3159 3161 3162 3163 3164 3165 3164 3164 3164 3164 3165 3165 3165 3166 3166
3125 3127 3126 3126 3126 3125 3126 3126 3126 3126 3125 3127 3128 3128 3122 3095 3126 3124 3130 3133 3135 3136 3136 3138 3140 3142 3144 3146 3148 3149 3151 3153 3154 3156 3158 3160 3161 3162 3162 3163 3163 3163 3164 3164 3165 3165 3165 3166 3166
3123 3124 3124 3123 3122 3122 3122 3122 3123 3123 3122 3123 3125 3125 3120 3119 3124 3120 3127 3131 3132 3135 3137 3135 3138 3140 3142 3144 3146 3148 3150 3152 3154 3155 3157 3158 3160 3161 3162 3163 3163 3163 3163 3164 3164 3165 3166 3167 3167
3121 3120 3121 3118 3117 3116 3116 3116 3117 3116 3117 3119 3121 3123 3118 3116 3117 3120 3124 3126 3128 3130 3135 3134 3137 3139 3140 3142 3144 3146 3148 3151 3152 3155 3156 3158 3159 3159 3161 3162 3162 3162 3163 3164 3165 3165 3166 3167 3167
3118 3118 3115 3114 3113 3111 3110 3111 3110 3110 3111 3112 3114 3117 3117 3117 3116 3118 3120 3122 3124 3127 3129 3133 3135 3139 3138 3139 3142 3144 3146 3149 3151 3154 3155 3157 3158 3159 3159 3161 3161 3162 3163 3164 3165 3166 3167 3168 3169
3117 3116 3113 3111 3108 3107 3106 3105 3105 3104 3105 3106 3107 3108 3110 3112 3114 3115 3116 3117 3120 3121 3123 3127 3130 3134 3134 3137 3140 3142 3145 3147 3150 3152 3153 3156 3157 3158 3158 3160 3160 3162 3162 3163 3164 3165 3167 3168 3169
3116 3112 3110 3109 3107 3105 3103 3102 3102 3102 3103 3100 3101 3102 3104 3105 3109 3110 3110 3113 3115 3119 3118 3124 3126 3129 3130 3135 3138 3139 3143 3146 3148 3150 3153 3154 3155 3156 3158 3158 3160 3161 3161 3163 3164 3166 3166 3167 3168
3113 3112 3110 3108 3106 3103 3100 3098 3098 3099 3099 3098 3099 3100 3100 3100 3102 3105 3107 3107 3110 3112 3116 3120 3119 3125 3127 3131 3133 3137 3141 3144 3147 3149 3151 3153 3154 3154 3156 3156 3158 3159 3161 3162 3163 3165 3165 3166 3167
3114 3112 3111 3109 3105 3103 3100 3098 3099 3098 3097 3095 3095 3096 3097 3097 3096 3099 3102 3103 3105 3107 3110 3112 3112 3121 3124 3126 3127 3133 3137 3141 3144 3147 3148 3150 3152 3153 3154 3155 3156 3157 3159 3160 3161 3163 3164 3165 3166
3114 3112 3110 3108 3105 3101 3100 3096 3096 3095 3093 3090 3090 3091 3092 3093 3093 3091 3096 3098 3098 3101 3103 3104 3109 3112 3117 3120 3123 3129 3133 3138 3141 3143 3145 3147 3149 3151 3152 3153 3154 3155 3157 3159 3160 3161 3162 3163 3164
3115 3112 3109 3106 3105 3099 3096 3094 3092 3089 3086 3085 3085 3085 3086 3088 3089 3090 3087 3090 3093 3094 3095 3097 3103 3109 3114 3115 3119 3125 3129 3134 3136 3139 3142 3144 3147 3148 3149 3150 3151 3152 3155 3156 3157 3159 3160 3161 3162
3114 3111 3107 3104 3101 3096 3095 3091 3089 3087 3085 3082 3080 3080 3081 3083 3084 3082 3081 3085 3087 3088 3091 3076 3078 3099 3106 3113 3116 3121 3125 3130 3132 3135 3137 3141 3144 3145 3146 3147 3148 3150 3151 3153 3154 3156 3157 3158 3159
3112 3108 3105 3102 3098 3096 3092 3090 3089 3087 3083 3080 3078 3076 3075 3074 3076 3079 3076 3080 3082 3087 3089 3074 3088 3095 3102 3103 3112 3116 3121 3124 3127 3131 3133 3136 3139 3141 3143 3143 3145 3146 3147 3148 3150 3152 3154 3155 3157
3110 3106 3102 3100 3097 3094 3089 3086 3087 3084 3080 3075 3071 3068 3068 3069 3070 3072 3072 3074 3078 3082 3089 3085 3055 3092 3099 3100 3104 3111 3116 3121 3124 3128 3129 3132 3134 3136 3138 3139 3141 3141 3143 3144 3145 3147 3149 3151 3153
3107 3102 3097 3096 3097 3094 3092 3087 3086 3081 3077 3070 3066 3061 3060 3060 3061 3066 3067 3070 3073 3078 3081 3082 3087 3092 3093 3094 3100 3107 3112 3117 3121 3123 3125 3127 3128 3131 3133 3135 3135 3135 3138 3139 3140 3141 3142 3143 3146
3107 3100 3097 3096 3096 3095 3092 3089 3085 3078 3073 3068 3063 3058 3056 3056 3056 3059 3064 3068 3070 3073 3075 3081 3080 3056 3086 3090 3099 3103 3109 3113 3116 3118 3120 3120 3120 3122 3125 3128 3128 3127 3128 3129 3131 3133 3134 3137 3138
3104 3101 3097 3095 3094 3091 3093 3093 3083 3079 3074 3067 3063 3058 3054 3054 3054 3057 3061 3066 3070 3072 3072 3071 3074 3076 3076 3084 3096 3103 3107 3111 3112 3113 3112 3113 3112 3112 3115 3117 3118 3120 3121 3123 3126 3128 3134 3135 3137
3106 3099 3098 3095 3094 3092 3093 3091 3088 3083 3076 3069 3062 3058 3055 3053 3054 3057 3062 3067 3070 3072 3073 3074 3076 3077 3082 3083 3093 3099 3102 3101 3105 3107 3108 3107 3106 3107 3106 3104 3108 3111 3115 3119 3121 3124 3128 3131 3133
3107 3106 3106 3106 3098 3097 3093 3092 3091 3084 3078 3072 3066 3061 3058 3057 3057 3059 3062 3067 3071 3073 3074 3078 3082 3085 3092 3093 3093 3095 3099 3101 3104 3103 3099 3098 3098 3100 3101 3103 3104 3107 3111 3115 3116 3121 3125 3127 3129
3108 3109 3107 3105 3102 3099 3091 3092 3091 3088 3083 3075 3070 3065 3062 3061 3062 3064 3067 3070 3072 3074 3076 3078 3081 3086 3089 3091 3093 3095 3098 3100 3100 3101 3100 3096 3096 3097 3100 3103 3104 3106 3109 3112 3115 3119 3122 3124 3124
3111 3109 3108 3105 3104 3095 3086 3090 3092 3088 3083 3079 3074 3071 3068 3067 3067 3069 3071 3073 3075 3076 3079 3081 3083 3087 3089 3091 3092 3094 3096 3099 3099 3098 3099 3099 3099 3100 3101 3103 3105 3106 3109 3112 3114 3116 3117 3117 3116
3112 3111 3109 3106 3105 3100 3091 3092 3092 3089 3085 3081 3078 3076 3073 3072 3073 3073 3075 3076 3077 3078 3080 3082 3084 3086 3089 3091 3092 3093 3096 3099 3100 3099 3099 3100 3101 3101 3101 3102 3104 3105 3107 3110 3110 3111 3111 3109 3109
3109 3109 3109 3107 3105 3101 3099 3096 3093 3090 3086 3083 3081 3080 3078 3077 3076 3077 3078 3079 3080 3081 3082 3084 3085 3087 3090 3092 3093 3096 3099 3099 3100 3099 3098 3099 3099 3099 3100 3100 3101 3102 3104 3105 3105 3104 3104 3102 3101